Regional Weather Roundup
Issued by NWS

Home | Current Version | Previous Version | Text Only | Print | Product List | Glossary On
Versions: 1 2 3 4 5 6 7 8 9 10 11 12 13 14 15 16 17 18 19 20 21 22 23 24 25 26 27 28 29 30 31 32 33 34 35 36 37 38 39 40 41 42 43 44 45 46 47 48 49 50
000
ASUS43 KMKX 241411
RWRWI

WISCONSIN REGIONAL WEATHER ROUNDUP
NATIONAL WEATHER SERVICE MILWAUKEE/SULLIVAN WI
800 AM CST FRI FEB 24 2017

NOTE: "FAIR" INDICATES FEW OR NO CLOUDS BELOW 12,000 FEET WITH NO
SIGNIFICANT WEATHER AND/OR OBSTRUCTIONS TO VISIBILITY.

WIZ001-002-006>008-014>016-023>028-241500-
NORTHWEST WISCONSIN

CITY           SKY/WX    TMP DP  RH WIND       PRES   REMARKS
SUPERIOR ARPT  CLOUDY    21  13  72 N9G18     29.96F WCI  10
ASHLAND        CLOUDY    22  17  81 NE21G28   29.93S HAZE    WCI   6
HAYWARD        LGT SNOW  24  18  77 NE18G25   29.84S WCI  10
SIREN          CLOUDY    25  18  76 NE16G28   29.86R WCI  12
CUMBERLAND     CLOUDY    27  19  74 N15G26    29.80R WCI  15
RICE LAKE      LGT SNOW  26  23  90 N16       29.81S VSB 3/4 WCI  13
CHETEK         LGT SNOW  27  24  91 N14       29.78S WCI  15
LADYSMITH      LGT SNOW  26  22  85 N17G26    29.78F WCI  13
EAU CLAIRE     CLOUDY    27  24  89 NE13      29.75S WCI  16
MENOMONIE      LGT SNOW  28  25  89 N10       29.78S WCI  19
NEW RICHMOND   FLURRIES  27  19  71 N17       29.81S WCI  14
OSCEOLA        CLOUDY    26  19  74 N9G22     29.87R WCI  16
$$

WIZ003>005-009-010-017-018-241500-
NORTH CENTRAL WISCONSIN

CITY           SKY/WX    TMP DP  RH WIND       PRES   REMARKS
MANITOWISH WTR LGT SNOW  20  19  98 N10G16    29.79F VSB 3/4 WCI   8
ARBOR VITAE    LGT SNOW  22  19  89 NE6         N/A  VSB 1   WCI  15
WOODRUFF       LGT SNOW  22  19  89 NE6         N/A  VSB 1   WCI  15
RHINELANDER    LGT SNOW  24  21  88 NE8G20    29.76F FOG     WCI  15
EAGLE RIVER    LGT SNOW  21  19  91 NE14G21   29.79R VSB 3/4 WCI   8
LAND O LAKES   LGT SNOW  21  19  91 NE10G17   29.81F VSB 3/4 WCI  10
PHILLIPS       LGT SNOW  23  20  91 NE14G21   29.77S WCI  10
TOMAHAWK       LGT SNOW  24  20  88 NE9       29.76S WCI  14
MEDFORD        MIX PCPN  25  22  85 NE18G24   29.71S WCI  12
MERRILL        NOT AVBL
$$

WIZ029-030-035-036-043>047-241500-
CENTRAL WISCONSIN

CITY           SKY/WX    TMP DP  RH WIND       PRES   REMARKS
WAUSAU         LGT SNOW  27  23  85 NE12G24   29.70S FOG     WCI  17
MOSINEE        LGT SNOW  27  27 100 NE14G23   29.71F VSB 3/4 WCI  15
MARSHFIELD     CLOUDY    27  24  89 NE15      29.67F FOG     WCI  15
STEVENS POINT  MIX PCPN  26  25  94 NE18G24   29.70S WCI  13
WAUPACA        LGT SNOW  31  27  88 N16G24    29.70R WCI  19
WAUTOMA        LGT SNOW  29  26  89 NE18G30     N/A  FOG     WCI  16
WISC RAPIDS    LGT SNOW  29  26  89 NE15G21   29.69S FOG     WCI  18
CAMP DOUGLAS   FRZ DRZL  28  27  93 NE9G26    29.66F FOG     WCI  20
$$

WIZ011>013-019>022-031-037>040-048>050-241500-
NORTHEAST WISCONSIN

CITY           SKY/WX    TMP DP  RH WIND       PRES   REMARKS
ANTIGO         LGT SNOW  24  23  93 NE24      29.72F WCI   9
SHAWANO        LGT SNOW  30  27  86 NE21G28   29.73F WCI  17
OCONTO         CLOUDY    28  26  93 NE15G22   29.75F VSB 1/4 WCI  16
STURGEON BAY   SNOW      29  27  92 NE21G30   29.74F VSB 1/2 WCI  16
GREEN BAY      LGT SNOW  30  29  96 NE30G39   29.68F VSB 3/4 WCI  15
MANITOWOC      LGT SNOW  32  29  88 NE16G25   29.67S FOG     WCI  21
APPLETON       LGT SNOW  28  28 100 NE16G29   29.64F VSB 3/4 WCI  17
CLINTONVILLE   LGT SNOW  30  27  86 NE18G29   29.71F WCI  18
OSHKOSH        LGT SNOW  30  28  92 NE21G31   29.64F VSB 1   WCI  17
$$

WIZ032>034-041-042-053>061-241500-
SOUTHWEST WISCONSIN

CITY           SKY/WX    TMP DP  RH WIND       PRES   REMARKS
LA CROSSE      MIX PCPN  31  27  85 N14       29.67F WCI  21
SPARTA         MIX PCPN  29  28  94 NE14      29.67F WCI  18
VIROQUA        CLOUDY    29  27  93 NE23G31   29.59F WCI  15
BOSCOBEL       CLOUDY    32  28  85 NE10G21   29.60R FOG     WCI  24
PRAIRIE DU CHI CLOUDY    31  30  97 N8G17     29.60R WCI  23
PLATTEVILLE    CLOUDY    32  32 100 NE14G20   29.52S WCI  22
$$

WIZ056-057-062-063-064-067-068-241500-
SOUTH CENTRAL WISCONSIN

CITY           SKY/WX    TMP DP  RH WIND       PRES   REMARKS
REEDSBURG      DRIZZLE   29  28  97 NE14G22   29.61F WCI  18
BARABOO/DELLS  MIX PCPN  29  28  94 NE15G23   29.60F WCI  18
LONE ROCK      CLOUDY    31  28  89 NE18G25   29.59F FOG     WCI  19
MINERAL POINT  CLOUDY    32  32 100 NE7       29.52F WCI  26
MADISON        DRIZZLE   32  30  92 NE20G29   29.58R FOG     WCI  20
MIDDLETON      CLOUDY    33  33  99 NE12G18   29.58S WCI  24
WATERTOWN      CLOUDY    32  32 100 NE12G23   29.56F FOG     WCI  23
MONROE         CLOUDY    32  32 100 NE23G30   29.50F FOG     WCI  19
JANESVILLE     CLOUDY    36  36 100 NE12G17   29.53R FOG     WCI  27
$$

WIZ051-052-058>065-066-070>072-241500-
SOUTHEAST WISCONSIN

CITY           SKY/WX    TMP DP  RH WIND       PRES   REMARKS
MILWAUKEE      CLOUDY    36  33  89 N13       29.56R WCI  27
WAUKESHA       CLOUDY    30  30 100 NE16G35   29.57F WCI  19
MILWAUKEE/TIMM CLOUDY    34  30  86 NE22      29.57R WCI  22
RACINE         CLOUDY    37  34  89 NE15G28   29.55R WCI  28
KENOSHA        CLOUDY    37  34  89 NE20      29.52S WCI  27
FOND DU LAC    MIX PCPN  32  28  85 NE21      29.63F WCI  20
SHEBOYGAN      MIX PCPN  32  30  92 NE25G35   29.63F FOG     WCI  19
WEST BEND      CLOUDY    32  32 100 NE10G18   29.59S WCI  24
JUNEAU         CLOUDY    32  30  92 NE14      29.59F WCI  22
$$

LSZ147-162-241500-
LAKE SUPERIOR

STATION/POSITION TIME  TEMP    WIND        PRES    WAVE
                       AIR SEA DIR/SP/G            HT/PER
                 (UTC) (F)     (DEG/KT/KT) (MB)    (FT/S)
DEVILS ISLAND    1400   20      40/ 24/ 26 1016.3F
PORT WING        1340   24      40/ 23/ 26 1014.2F
SAXON HARBOR     1330   25      40/ 22/ 28 1012.9S
$$

LMZ867-665-643>646-241500-
LAKE MICHIGAN

STATION/POSITION TIME  TEMP    WIND        PRES    WAVE
                       AIR SEA DIR/SP/G            HT/PER
                 (UTC) (F)     (DEG/KT/KT) (MB)    (FT/S)
CHAMBERS ISLAND  1340   28      20/ 30/ 37 1006.4F
NORTHPORT PIER   1340   29     350/ 18/ 21 1011.5R
SISTER BAY       1335   30      10/ 15/ 21   N/A
KEWAUNEE LAKESHO 1348   31      40/ 25/ 33 1005.0R
SHEBOYGAN LAKESH 1400   33      30/ 33/ 36 1003.4F
PORT WASHINGTON  1340   33      30/ 16/ 25 1003.4R
MILWAUKEE LAKESH 1350   35      20/ 20/ 24   N/A
KENOSHA   LAKESH 1400   36      30/ 19/ 24 1000.3
$$

TC  - TEMPERATURE IN CELSIUS
VSB - VISIBILITY IN STATUTE MILES
WCI - WIND CHILL INDEX
HX  - HEAT INDEX




USA.gov is the U.S. government's official web portal to all federal, state and local government web resources and services.